Location: Zapote
(9.9191°N, 84.0597°W)
Time: 15:30:56
(UTC-06:00)

Envisat - Visible Passes

Search period start: 09 April 2020 00:00
Search period end: 19 April 2020 00:00
Orbit: 764 x 766 km, 98.1° (Epoch: 09 April)

Date Brightness Start Highest point End Pass type
(mag) Time Alt. Az. Time Alt. Az. Time Alt. Az.
09 Apr 5.1 18:15:38 10° SSW 18:20:03 30° W 18:24:29 10° NW visible
10 Apr 5.7 05:02:51 10° NE 05:06:52 24° E 05:10:53 10° SSE visible
11 Apr 5.9 18:42:44 10° SW 18:45:30 15° W 18:48:18 10° WNW visible
12 Apr 4.5 18:04:00 10° S 18:08:45 41° WSW 18:13:31 10° NNW visible
13 Apr 5.9 04:52:15 10° ENE 04:55:34 18° E 04:58:53 10° SE visible
14 Apr 5.7 18:30:32 10° SSW 18:34:12 20° W 18:37:52 10° NW visible
16 Apr 6.1 04:42:06 10° ENE 04:44:15 13° E 04:46:25 10° SE visible
17 Apr 5.3 18:18:39 10° SSW 18:22:54 27° W 18:27:09 10° NW visible
